Location: *
(38.9800°N, 16.0500°E)
Time: 05:36:27
(UTC+00:00)

USA 267 - Pass Details

Date: 07 April 2020
Orbit: 1101 x 1107 km, 123.0° (Epoch: 05 April)

Event Time Altitude Azimuth Distance (km) Brightness Sun altitude
Rises 00:48:31 0° 50° (NE) 3,921 7.1 -37.4°
Reaches altitude 10° 00:51:06 10° 55° (NE) 2,960 6.2 -37.1°
Enters shadow 00:55:55 43° 91° (E) 1,500 4.0 -36.6°
